#timestamp,LO_Frequency,Hit,StdDev 
1661716815.1,286046995.0,N
1661716816.0,286046995.0,N
1661716835.8,286046995.1,N
1661716855.7,286046995.0,N
1661716875.5,286046995.6,N
1661716895.3,286046995.1,N
1661716915.2,286046995.8,N
1661716935.9,286046995.7,N
1661716955.7,286046995.5,N
1661716975.6,286046998.0,N
1661716995.4,286046997.6,N
1661717015.3,286046997.8,N
1661717035.1,286046997.9,N
1661717036.0,286046997.9,N
1661717055.8,286046997.6,N
1661717075.7,286046995.3,N
1661717095.5,286046995.8,N
1661717115.4,286046995.9,N
1661717135.2,286046996.2,Y
1661717155.0,286046996.5,P
1661717155.9,286046996.5,P
1661717175.8,286046996.5,P
1661717195.6,286046999.4,Y
1661717215.4,286047001.6,P
1661717235.3,286047002.7,N
1661717255.1,286047002.4,N
1661717275.9,286047001.5,N
1661717295.7,286047002.6,N
1661717315.5,286047002.6,N
1661717335.4,286047002.6,N
1661717355.2,286047002.8,N
1661717375.0,286047002.4,N
1661717376.0,286047002.4,N
1661717395.8,286047004.4,N
1661717415.6,286047004.3,N
1661717435.5,286047001.3,N
1661717455.3,286047002.4,N
1661717475.1,286047001.6,N
1661717495.9,286047001.9,N
1661717515.7,286047001.5,N
1661717535.6,286047001.9,N
1661717555.4,286047002.3,N
1661717575.2,286047004.0,N
1661717595.1,286047004.4,N
1661717596.0,286047004.4,N
1661717615.8,286047003.5,N
1661717635.6,286047004.3,N
1661717655.5,286047003.9,N
1661717675.3,286047004.1,N
1661717695.2,286047001.6,N
1661717715.9,286047001.9,N
1661717735.7,286047002.1,N
1661717755.6,286047001.4,N
1661717775.4,286047002.0,N
1661717795.2,286047001.9,N
1661717815.1,286047004.0,Y
1661717816.0,286047004.0,P
1661717835.8,286047001.2,N
1661717855.7,286046998.7,N
1661717875.5,286047001.1,N
1661717895.3,286046998.5,N
1661717915.2,286046999.5,N
1661717935.0,286046999.6,N
1661717935.9,286046999.6,N
1661717955.8,286047011.9,Y
1661717975.6,286046996.5,P
1661717995.4,286046999.6,N
1661718015.3,286046999.4,N
1661718035.1,286046999.2,N
1661718055.8,286046999.6,N
1661718075.7,286046997.0,N
1661718095.5,286046996.6,N
1661718115.4,286046996.5,N
1661718135.2,286046997.1,N
1661718155.0,286046997.4,N
1661718155.9,286046997.4,N
1661718175.8,286046998.8,N
1661718195.6,286046998.7,N
1661718215.4,286046999.0,N
1661718235.3,286046999.5,N
1661718255.1,286046999.1,N
1661718275.9,286046996.6,N
1661718325.7,286046999.2,E
1661718335.7,286046999.2,N
1661718355.5,286046998.2,P
1661718375.3,286046998.6,N
1661718395.2,286046999.0,N
1661718415.0,286047001.1,N
1661718415.9,286047001.1,N
1661718435.7,286046998.6,N
1661718455.6,286047000.8,N
1661718475.4,286047001.2,N
1661718495.3,286046998.7,N
1661718515.1,286046998.9,N
1661718516.0,286046998.9,N
1661718535.8,286046999.4,N
1661718555.7,286046997.8,N
1661718575.5,286046997.8,N
1661718595.4,286046996.1,Y
1661718615.2,286046995.4,P
1661718635.0,286046994.9,N
1661718635.9,286046994.9,N
1661718655.8,286046998.0,N
1661718675.6,286046996.7,N
1661718695.4,286046997.0,N
1661718715.3,286046999.1,N
1661718735.1,286046998.3,N
1661718755.9,286046998.1,N
1661718775.7,286046999.0,N
1661718795.5,286046997.7,N
1661718815.4,286046997.5,N
1661718835.2,286046995.4,Y
1661718855.0,286046998.7,P
1661718856.0,286046998.7,N
1661718875.8,286046999.3,N
1661718895.6,286046996.9,Y
1661718915.5,286046998.8,P
1661718935.3,286046999.1,P
1661718955.1,286046998.4,P
1661718975.9,286046998.4,Y
1661718995.7,286047000.4,P
1661719015.6,286046999.8,N
1661719035.4,286047000.9,N
1661719055.2,286047001.6,N
1661719075.1,286047003.7,Y
1661719076.0,286047003.7,P
1661719095.8,286047003.7,N
1661719115.7,286047001.3,N
1661719135.5,286047003.2,N
1661719155.3,286047003.7,N
1661719175.2,286047004.8,Y
1661719195.0,286047004.3,P
1661719195.9,286047004.3,P
1661719215.7,286047001.7,N
1661719235.6,286047001.3,N
1661719255.4,286047004.4,Y
1661719275.3,286046998.8,P
1661719295.1,286046998.6,N
1661719296.0,286046998.6,N
1661719315.8,286046998.5,N
1661719335.7,286046999.3,N
1661719355.5,286047001.0,N
1661719375.3,286046998.1,N
1661719395.2,286047000.3,N
1661719415.0,286047000.7,N
1661719415.9,286047000.7,N
1661719435.8,286047002.4,N
1661719455.6,286047000.1,N
1661719475.4,286047002.8,N
1661719495.3,286047002.0,N
1661719515.1,286047002.7,N
1661719535.9,286047002.5,N
1661719555.7,286047002.0,N
1661719575.5,286047001.6,N
1661719595.4,286047001.3,N
1661719615.2,286047002.6,N
1661719635.0,286047001.6,N
1661719635.9,286047001.6,N
1661719655.8,286047002.1,N
1661719675.6,286047002.2,N
1661719695.5,286047000.1,N
1661719715.3,286047002.8,N
1661719735.1,286047000.1,N
1661719755.9,286047002.7,N
1661719775.7,286047002.1,N
1661719795.5,286047002.4,N
1661719815.4,286047002.0,N
1661719835.2,286047001.8,N
1661719855.1,286047001.6,N
1661719856.0,286047001.6,N
1661719875.8,286047004.1,Y
1661719895.6,286047001.8,P
1661719915.5,286047001.6,P
1661719935.3,286047001.7,P
1661719955.2,286047001.3,Y
1661719975.9,286047000.9,P
1661719995.7,286047001.0,N
1661720015.6,286047000.5,N
1661720035.4,286047000.8,N
1661720055.2,286047000.6,N
1661720075.1,286046999.9,N
1661720076.0,286046999.9,N
1661720095.8,286046999.8,N
1661720115.7,286047000.3,N
1661720135.5,286047001.0,N
1661720155.3,286047000.9,N
1661720175.2,286046999.9,N
1661720195.0,286047002.5,Y
1661720195.9,286047002.5,P
1661720215.7,286047002.3,N
1661720235.6,286047002.8,P
1661720255.4,286047002.8,Y
1661720275.3,286046998.9,P
1661720295.1,286046998.8,N
1661720315.8,286046999.0,N
1661720335.7,286046998.3,N
1661720355.5,286046998.8,N
1661720375.4,286047011.9,Y
1661720395.2,286047000.7,P
